Погода в Ждановичах

Беларусь     53°56′39″N   27°24′56″E
темп.,
°C
ветер,
м/с
пор.,
м/с
влажн.,
%
обл.,
%
осадки,
мм/ч
давл.,
гПа
погр.,
м
10 мая, пн
пн1000:00+6ююв367120 0.0 102497
03:00+6ююв4106990 0.0 1024229
06:00+6ююв397437 0.0 1025199
09:00+10ю59626 0.0 1025396
12:00+15ююв57520 0.0 1025921
15:00+17ююв56495 0.0 10241270
18:00+17ююв45554 0.0 10231299
21:00+12юв35753 0.0 102489
11 мая, вт
вт1100:00+9юв410784 0.0 1025218
03:00+7юв310748 0.0 1026204
06:00+6юв37725 0.0 1026149
09:00+11юв48585 0.0 1026407
12:00+16юв56455 0.0 1024933
15:00+18вюв564057 0.0 10231160
18:00+17вюв46505 0.0 1022955
21:00+13в410740 0.0 1022243
12 мая, ср
ср1200:00+11вюв4108773 0.0 1022228
03:00+11вюв410935 0.0 1021222
06:00+10вюв5129848 0.0 1021411
09:00+12юв610670 0.0 1021715
12:00+15вюв68553 0.0 10201128
15:00+16вюв57513 0.0 10191534
18:00+16в3548100 0.0 10161872
21:00+12в4771100 0.1 1014288
13 мая, чт
чт1300:00+9ю3596100 4.4 1012297
03:00+8юв61095100 10.2 1012626
06:00+8вюв5996100 1.3 1012649
09:00+9вюв5891100 1.9 1011569
12:00+11юв687592 0.8 10111140
15:00+11юв5978100 1.2 1010748
18:00+11юв51185100 1.3 1010832
21:00+10юв61488100 1.9 1009884
14 мая, пт
пт1400:00+10юв61392100 0.1 1009590
03:00+10вюв51196100 0.3 1009411
06:00+10в41298100 0.6 1008394
09:00+10в3799100 1.8 1006284
12:00+12ююв4695100 6.0 1007477
15:00+16ююв467990 6.9 1006893
18:00+15ю358691 0.6 1006522
21:00+12ю239414 0.8 100744